Location: ČR
(50.0000°N, 15.0000°E)
Time: 15:14:48
(UTC+00:00)

Explorer 7 - Pass Details

Date: 26 October 2021
Orbit: 483 x 675 km, 50.3° (Epoch: 27 November)

Event Time Altitude Azimuth Distance (km) Brightness Sun altitude
Rises 19:19:35 0° 222° (SW) 2,613 - -34.2°
Reaches altitude 10° 19:21:51 10° 212° (SSW) 1,757 - -34.6°
Maximum altitude 19:25:28 33° 148° (SSE) 919 - -35.1°
Drops below altitude 10° 19:29:18 10° 83° (E) 1,868 - -35.7°
Sets 19:31:47 0° 74° (ENE) 2,806 - -36.0°
